Dauntless Aviation
Airports Europe France
LFIY

Saint Jean d'Angely

FRANCE

Airport Info
Suggest Updated Information for this Airport

Location

Latitude / Longitude: 45°57'59"N / 0°31'31"W
  45°57.984'N / 0°31.518'W
  45.9664 / -0.5253

Runway Information

Runway 10 /28

Dimensions: 2789 x 164 ft.
Surface: U
 
Runway 10
Runway 28
Latitude: 45.966636 45.965728
Longitude: -0.528086 -0.518369
Elevation: 243 ft. 243 ft.
Runway true heading: 95.7 275.7
 

Instrument Procedures

IAPs (Instrument Approach Procedures)

  Visual Approach Chart
Satellite photo at:
Airport distance calculator
From:
Weather Reports

METAR

LFBG
20.0nm SE
LFBG 280430Z AUTO 05005KT CAVOK 18/13 Q1014
LFBH
31.0nm W
LFBH 280430Z AUTO 10010KT CAVOK 21/17 Q1013 TEMPO VRB15G25KT 3000 TSRA BKN050CB
LFBU
34.5nm E
LFBU 280430Z AUTO 05007KT CAVOK 18/12 Q1015

TAF

LFBH
31.0nm W
TAF LFBH 272300Z 2800/2824 11005KT CAVOK TEMPO 2800/2806 VRB15G25KT 3000 TSRA BKN050CB BECMG 2810/2812 20010KT PROB30 TEMPO 2821/2824 30015G25KT -SHRA SCT008 SCT040CB
LFBU
34.5nm E
TAF LFBU 271700Z 2718/2818 12006KT CAVOK PROB40 TEMPO 2800/2806 SCT080TCU PROB30 TEMPO 2800/2806 SHRA SCT060CB BECMG 2810/2812 20010KT BECMG 2816/2818 28004KT
Safelog

 

Dauntless Aviation

© 2007-2017 Dauntless Aviation, all rights reserved
Information provided via PilotNav comes from a variety of official and unofficial data sources. As errors are possible, do not use PilotNav for primary flight planning purposes. Verify any information that you receive via PilotNav with current and canonical charts and other official documents. The material in this database is subject to database copyrights held by Dauntless Aviation and may not be copied without the express permission of Dauntless Aviation - licenses for use of part of all of this data are available for purchase; enquire via the Dauntless Aviation helpdesk. A number of mechanisms and markers exist in the database to protect against and identify infringement / copyright. Automated queries against this website are stictly prohibited, and all activity is logged and analyzed.